Weather History for KSKA - November, 2012

Change the Weather History Date:

Thursday, November 8, 2012

  Actual Average Record
Temperature  
Mean Temperature 34 °F -  
Max Temperature 41 °F 43 °F 53 °F (1996)
Min Temperature 26 °F 29 °F 26 °F (2001)
Degree Days  
Heating Degree Days 32    
Moisture  
Dew Point 31 °F    
Average Humidity 97    
Maximum Humidity 100    
Minimum Humidity 58    
Precipitation  
Precipitation 0.10 in - - ()
Snow  
Snow 0.00 in - - ()
Snow Depth 2.00 in    
Sea Level Pressure  
Sea Level Pressure 29.75 in    
Wind  
Wind Speed 8 mph (North)    
Max Wind Speed 17 mph    
Max Gust Speed 20 mph    
Visibility 7 miles    
Events Snow    
Averages and records for this station are not official NWS values.
T = Trace of Precipitation, MM = Missing Value Source: NWS Daily Summary

Daily Weather History Graph

Daily Weather History Graph

Search for Another Location

Airport or City:

Trip Planner

Search our weather history database for the weather conditions in past years. The results will help you decide how hot, cold, wet, or windy it might be!

Date:

Astronomy

Nov. 08, 2012 Rise Set
Actual Time 6:46 AM PST 4:22 PM PST
Civil Twilight 6:13 AM PST 4:54 PM PST
Nautical Twilight 5:36 AM PST 5:31 PM PST
Astronomical Twilight 5:00 AM PST 6:07 PM PST
Moon 12:22 AM PST (11/8) 1:26 PM PST (11/8)
Length of Visible Light 10h 41m
Length of Day
9h 35m
Waning Crescent, 32% of the Moon is Illuminated
Nov 8
Waning Crescent
Nov 13
New
Nov 20
First Quarter
Nov 28
Full
Dec 6
Last Quarter

Hourly Weather History & Observations

Time (PST) Temp. Windchill Dew Point Humidity Pressure Visibility Wind Dir Wind Speed Gust Speed Precip Events Conditions
12:20 AM 32.0 °F 28.7 °F 32.0 °F 100% 29.94 in 10.0 mi ENE 3.5 mph - N/A   Clear
12:49 AM 32.0 °F 26.4 °F 32.0 °F 100% 29.92 in 10.0 mi East 5.8 mph - N/A   Clear
12:55 AM 32.0 °F 27.5 °F 32.0 °F 100% 29.92 in 10.0 mi ENE 4.6 mph - N/A   Clear
12:58 AM 31.1 °F 25.4 °F 31.1 °F 100% 29.97 in 10.0 mi ENE 5.8 mph - 0.00 in   Clear
1:35 AM 32.0 °F 28.7 °F 32.0 °F 100% 29.92 in 10.0 mi North 3.5 mph - N/A   Clear
1:58 AM 31.3 °F 24.7 °F 31.3 °F 100% 29.96 in 10.0 mi NNE 6.9 mph - 0.00 in   Clear
2:00 AM 32.0 °F 25.6 °F 32.0 °F 100% 29.91 in 10.0 mi NNE 6.9 mph - N/A   Clear
2:37 AM 30.2 °F 23.4 °F 30.2 °F 100% 29.89 in 10.0 mi NNE 6.9 mph - N/A   Clear
2:58 AM 30.0 °F 22.4 °F 30.0 °F 100% 29.94 in 10.0 mi NE 8.1 mph - 0.00 in   Clear
3:58 AM 27.7 °F - 27.7 °F 100% 29.93 in 10.0 mi North 1.2 mph - N/A   Clear
4:24 AM 26.6 °F 21.2 °F 26.6 °F 100% 29.86 in 10.0 mi North 4.6 mph - N/A   Clear
4:34 AM 26.6 °F 21.2 °F 26.6 °F 100% 29.85 in 10.0 mi North 4.6 mph - N/A   Clear
4:58 AM 27.7 °F 21.3 °F 27.7 °F 100% 29.91 in 10.0 mi North 5.8 mph - 0.00 in   Clear
5:37 AM 28.4 °F 22.2 °F 28.4 °F 100% 29.83 in 10.0 mi ENE 5.8 mph - N/A   Clear
5:45 AM 28.4 °F - 28.4 °F 100% 29.83 in 10.0 mi NE 2.3 mph - N/A   Clear
5:46 AM 28.4 °F - 28.4 °F 100% 29.82 in 10.0 mi NNE 1.2 mph - N/A   Clear
5:58 AM 27.1 °F - 27.1 °F 100% 29.89 in 10.0 mi NNE 1.2 mph - 0.00 in   Clear
6:08 AM 26.6 °F - 26.6 °F 100% 29.81 in 10.0 mi NNE 2.3 mph - N/A   Clear
6:58 AM 29.7 °F 22.8 °F 29.7 °F 100% 29.85 in 10.0 mi North 6.9 mph - 0.00 in   Clear
7:58 AM 32.5 °F 27.1 °F 32.5 °F 100% 29.83 in 10.0 mi NNE 5.8 mph - N/A   Clear
8:58 AM 34.9 °F 26.6 °F 34.9 °F 100% 29.80 in 10.0 mi NNW 11.5 mph - N/A   Partly Cloudy
9:58 AM 37.2 °F 29.1 °F 34.2 °F 89% 29.78 in 10.0 mi North 12.7 mph - N/A   Clear
10:58 AM 39.4 °F 31.1 °F 33.3 °F 79% 29.76 in 10.0 mi North 15.0 mph - N/A   Mostly Cloudy
11:55 AM 40.8 °F 33.7 °F 33.1 °F 74% 29.73 in 10.0 mi North 12.7 mph - N/A   Scattered Clouds
12:58 PM 41.9 °F 35.9 °F 30.6 °F 64% 29.72 in 10.0 mi North 10.4 mph - N/A   Mostly Cloudy
1:58 PM 41.9 °F 35.4 °F 28.9 °F 60% 29.71 in 10.0 mi North 11.5 mph - N/A   Overcast
2:58 PM 41.2 °F 35.0 °F 27.5 °F 58% 29.73 in 10.0 mi North 10.4 mph - N/A   Overcast
3:25 PM 41.0 °F 32.8 °F 28.4 °F 61% 29.67 in 10.0 mi ENE 16.1 mph 19.6 mph N/A   Overcast
3:58 PM 38.7 °F 29.5 °F 36.0 °F 90% 29.74 in 10.0 mi NNE 17.3 mph - 0.00 in   Overcast
4:08 PM 37.4 °F 27.8 °F 37.4 °F 100% 29.68 in 10.0 mi NE 17.3 mph - N/A Snow Light Snow
4:28 PM 33.8 °F 25.8 °F 33.8 °F 100% 29.69 in 6.0 mi NNE 10.4 mph - N/A Snow Light Snow
4:32 PM 32.0 °F 23.6 °F 32.0 °F 100% 29.69 in 6.0 mi NNE 10.4 mph - N/A Snow Light Snow
4:37 PM 32.0 °F 22.5 °F 32.0 °F 100% 29.69 in 7.0 mi NNE 12.7 mph - N/A Snow Light Snow
4:52 PM 32.0 °F 24.2 °F 32.0 °F 100% 29.68 in 3.0 mi North 9.2 mph - N/A Snow Light Snow
4:58 PM 32.7 °F 25.0 °F 32.7 °F 100% 29.75 in 3.0 mi North 9.2 mph - 0.02 in Snow Light Snow
5:08 PM 32.0 °F 23.6 °F 32.0 °F 100% 29.68 in 4.0 mi North 10.4 mph - N/A Snow Light Snow
5:48 PM 32.0 °F 24.2 °F 32.0 °F 100% 29.69 in 6.0 mi NNW 9.2 mph - N/A Snow Light Snow
5:58 PM 32.0 °F 23.6 °F 32.0 °F 100% 29.77 in 6.0 mi NNW 10.4 mph - 0.02 in Snow Light Snow
6:08 PM 32.0 °F 23.0 °F 32.0 °F 100% 29.68 in 6.0 mi NNW 11.5 mph - N/A Snow Light Snow
6:18 PM 32.0 °F 23.6 °F 32.0 °F 100% 29.69 in 7.0 mi North 10.4 mph - N/A Snow Light Snow
6:19 PM 32.0 °F 23.6 °F 32.0 °F 100% 29.69 in 7.0 mi North 10.4 mph - N/A Snow Light Snow
6:39 PM 32.0 °F 23.6 °F 32.0 °F 100% 29.69 in 5.0 mi North 10.4 mph - N/A Snow Light Snow
6:44 PM 32.0 °F 23.6 °F 32.0 °F 100% 29.69 in 5.0 mi North 10.4 mph - N/A Snow Light Snow
6:58 PM 32.2 °F 23.2 °F 32.2 °F 100% 29.75 in 5.0 mi North 11.5 mph - 0.01 in Snow Light Snow
7:08 PM 32.0 °F 23.0 °F 32.0 °F 100% 29.68 in 5.0 mi North 11.5 mph - N/A Snow Light Snow
7:13 PM 32.0 °F 23.0 °F 32.0 °F 100% 29.68 in 5.0 mi North 11.5 mph - N/A Snow Light Snow
7:23 PM 32.0 °F 23.6 °F 32.0 °F 100% 29.68 in 5.0 mi North 10.4 mph - N/A Snow Light Snow
7:28 PM 32.0 °F 24.2 °F 32.0 °F 100% 29.68 in 5.0 mi North 9.2 mph - N/A Snow Light Snow
7:43 PM 32.0 °F 23.6 °F 32.0 °F 100% 29.68 in 7.0 mi North 10.4 mph - N/A Snow Light Snow
7:53 PM 32.0 °F 23.0 °F 32.0 °F 100% 29.68 in 6.0 mi North 11.5 mph - N/A Snow Light Snow
7:58 PM 32.0 °F 23.6 °F 32.0 °F 100% 29.76 in 6.0 mi North 10.4 mph - 0.01 in Snow Light Snow
8:03 PM 32.0 °F 23.0 °F 32.0 °F 100% 29.69 in 6.0 mi North 11.5 mph - N/A Snow Light Snow
8:13 PM 32.0 °F 23.6 °F 32.0 °F 100% 29.68 in 7.0 mi North 10.4 mph - N/A Snow Light Snow
8:28 PM 32.0 °F 23.6 °F 32.0 °F 100% 29.69 in 10.0 mi North 10.4 mph - N/A Snow Light Snow
8:38 PM 32.0 °F 23.6 °F 32.0 °F 100% 29.69 in 6.0 mi North 10.4 mph - N/A Snow Light Snow
8:43 PM 32.0 °F 23.6 °F 32.0 °F 100% 29.69 in 7.0 mi North 10.4 mph - N/A Snow Light Snow
8:48 PM 32.0 °F 23.0 °F 32.0 °F 100% 29.69 in 8.0 mi North 11.5 mph - N/A Snow Light Snow
8:58 PM 31.8 °F 22.8 °F 31.8 °F 100% 29.75 in 7.0 mi North 11.5 mph - 0.01 in Snow Light Snow
9:08 PM 32.0 °F 23.6 °F 32.0 °F 100% 29.69 in 5.0 mi North 10.4 mph - N/A Snow Light Snow
9:13 PM 32.0 °F 24.2 °F 32.0 °F 100% 29.69 in 5.0 mi North 9.2 mph - N/A Snow Light Snow
9:18 PM 32.0 °F 24.2 °F 32.0 °F 100% 29.69 in 5.0 mi North 9.2 mph - N/A Snow Light Snow
9:33 PM 32.0 °F 24.2 °F 32.0 °F 100% 29.69 in 5.0 mi North 9.2 mph - N/A Snow Light Snow
9:48 PM 32.0 °F 23.6 °F 32.0 °F 100% 29.69 in 5.0 mi North 10.4 mph - N/A Snow Light Snow
9:58 PM 32.0 °F 23.6 °F 32.0 °F 100% 29.75 in 4.0 mi North 10.4 mph - 0.00 in Snow Light Snow
10:08 PM 32.0 °F 23.6 °F 32.0 °F 100% 29.69 in 5.0 mi North 10.4 mph - N/A Snow Light Snow
10:09 PM 32.0 °F 23.6 °F 32.0 °F 100% 29.69 in 5.0 mi North 10.4 mph - N/A Snow Light Snow
10:19 PM 32.0 °F 24.2 °F 32.0 °F 100% 29.69 in 7.0 mi North 9.2 mph - N/A Snow Light Snow
10:29 PM 32.0 °F 23.6 °F 32.0 °F 100% 29.69 in 8.0 mi North 10.4 mph - N/A Snow Light Snow
10:39 PM 32.0 °F 23.6 °F 32.0 °F 100% 29.69 in 6.0 mi North 10.4 mph - N/A Snow Light Snow
10:44 PM 32.0 °F 24.2 °F 32.0 °F 100% 29.69 in 5.0 mi North 9.2 mph - N/A Snow Light Snow
10:49 PM 32.0 °F 23.0 °F 32.0 °F 100% 29.69 in 5.0 mi North 11.5 mph - N/A Snow Light Snow
10:54 PM 32.0 °F 22.5 °F 32.0 °F 100% 29.69 in 4.0 mi North 12.7 mph - N/A Snow Light Snow
10:58 PM 31.3 °F 22.7 °F 31.3 °F 100% 29.75 in 4.0 mi North 10.4 mph - 0.01 in Snow Light Snow
11:18 PM 32.0 °F 22.5 °F 32.0 °F 100% 29.69 in 3.0 mi North 12.7 mph - N/A Snow Light Snow
11:28 PM 32.0 °F 24.8 °F 32.0 °F 100% 29.69 in 2.5 mi North 8.1 mph - N/A Snow Light Snow
11:33 PM 32.0 °F 24.8 °F 32.0 °F 100% 29.69 in 3.0 mi North 8.1 mph - N/A Snow Light Snow
11:38 PM 32.0 °F 24.2 °F 32.0 °F 100% 29.69 in 3.0 mi North 9.2 mph - N/A Snow Light Snow
11:53 PM 32.0 °F 25.6 °F 32.0 °F 100% 29.70 in 4.0 mi North 6.9 mph - N/A Snow Light Snow
11:58 PM 30.9 °F 23.5 °F 30.9 °F 100% 29.70 in 5.0 mi North 8.1 mph - 0.02 in Snow Light Snow